Location: Corona
(40.7470°N, 73.8601°W)
Time: 22:57:56
(UTC+00:00)

Cosmos 1025 Rocket - Pass Details

Date: 22 September 2019
Orbit: 593 x 619 km, 82.5° (Epoch: 16 October)

Event Time Altitude Azimuth Distance (km) Brightness Sun altitude
Rises 23:24:42 0° 350° (N) 2,841 6.7 -6.8°
Reaches altitude 10° 23:26:55 10° 349° (NNW) 1,934 5.8 -7.3°
Maximum altitude 23:31:10 75° 264° (W) 620 3.2 -8.1°
Drops below altitude 10° 23:35:24 10° 180° (S) 1,923 5.5 -8.8°
Sets 23:37:36 0° 178° (S) 2,823 6.3 -9.3°
